Regional Weather Roundup
Issued by NWS Newport/Morehead, NC

Current Version | Previous Version | Graphics & Text | Print | Product List | Glossary Off
Versions: 1 2 3 4 5 6 7 8 9 10 11 12 13 14 15 16 17 18 19 20 21 22 23 24 25 26 27 28 29 30 31 32 33 34 35 36 37 38 39 40 41 42 43 44 45 46 47 48 49 50

000
ASUS42 KMHX 020222
RWRMHX
WEATHER ROUNDUP FOR EASTERN NORTH CAROLINA
NATIONAL WEATHER SERVICE NEWPORT/MOREHEAD CITY NC
1000 PM EDT FRI AUG 01 2014

NOTE: "FAIR" INDICATES FEW OR NO CLOUDS BELOW 12,000 FEET
WITH NO SIGNIFICANT WEATHER AND/OR OBSTRUCTIONS TO VISIBILITY

NCZ015>017-031-032-045>047-102-103-020300-
NORTH COAST

CITY           SKY/WX    TMP DP  RH WIND       PRES   REMARKS
EDENTON        CLOUDY    73  72  95 SE7       30.09R
ELIZABETH CITY LGT RAIN  74  72  93 SE6       30.10R
KITTY HAWK     CLOUDY    75  73  92 SE9       30.08F
MANTEO         NOT AVBL

$$

NCZ045>047-081-094-103-104-020300-
CENTRAL COAST

CITY           SKY/WX    TMP DP  RH WIND       PRES   REMARKS
FRISCO         CLOUDY    76  73  91 SE16G25   30.09F
SWANQUARTER      N/A     75 N/A N/A SE6G16    30.06S

$$

NCZ095-097-098-100-101-020300-
SOUTHERN COAST

CITY           SKY/WX    TMP DP  RH WIND       PRES   REMARKS
BEAUFORT       CLOUDY    78  74  87 SE6       30.08R
CEDAR ISLAND     N/A     77 N/A N/A SE7       30.12S
JACKSONVILLE   CLOUDY    76  74  93 S3        30.07R
NEWPORT        NOT AVBL
PINEY ISLAND   CLOUDY    77  76  96 S5        30.08R
WILMINGTON     MOCLDY    77  73  87 CALM      30.07R


$$

NCZ011>013-027>030-043-044-078>080-089-090>093-098-020300-
COASTAL PLAIN

CITY           SKY/WX    TMP DP  RH WIND       PRES   REMARKS
AHOSKIE        CLOUDY    66  64  94 NE8       30.09S
CLINTON        RAIN      71  71 100 CALM      30.08S
ELIZABETHTOWN  CLOUDY    73  73 100 CALM      30.07R
GOLDSBORO      LGT RAIN  70  70 100 NW5       30.07R
GREENVILLE     CLOUDY    70  70 100 CALM      30.09R
HAVELOCK       MOCLDY    75  73  93 SE3       30.09R
KENANSVILLE    CLOUDY    75  73  96 CALM      30.08R
KINSTON        CLOUDY    75  74  96 SE6       30.08R
NEW BERN       MOCLDY    76  72  87 SE7       30.09R
RICHLANDS      MOCLDY    75  72  88 CALM      30.08R
ROANOKE RAPIDS NOT AVBL
ROCKY MOUNT    CLOUDY    67  66  97 NE7       30.09R
WASHINGTON     CLOUDY    74  72  94 SE3       30.08R
WHITEVILLE     CLOUDY    76  73  93 CALM      30.06R

$$

AMZ130-135-150-152-154-156-158-170-250-252-270-ANZ085-086-088-633-658-670-020300-
MARINE OBSERVATIONS

STATION/POSITION TIME  TEMP    WIND        PRES    WAVE   SWELL
                       AIR SEA DIR/SP/G            HT/PER HT/PER
                 (UTC) (F)     (DEG/KT/KT) (MB)    (FT/S) (FT/S)
CHESAPEAKE LIGHT NOT AVBL
BUOY 44014       0200   77 78  130/ 17/ 19 1019.3    4/ 5   2/ 7
DUCK             0200   76 76  140/ 20/ 23 1018.1
2E DUCK          0200                        N/A     4/ 5
OREGON INLET     0200   76 77  120/  8/ 15 1019.0
BUOY 44095       0200      77                N/A     3/ 6
20E OREGON INLET NOT AVBL
HATTERAS CG      0200   77 79  140/ 12/ 19 1019.1
DIAMOND BUOY     0200          VRB 16/ 17  1018.7    4/ 6   2/ 9
CAPE LOOKOUT     0200   79     170/ 11/ 12 1018.1
BEAUFORT LAB     0200   77 79  140/  5/  7 1018.1
30 SE NEW RIVER  0200   80 81  180/ 10/ 12 1018.5    4/ 6   3/ 6
5 SE WRIGHTSVILL 0200   76 81  160/  6/ 10   N/A
BUOY 41002       0058   81 81  150/ 12/ 14 1019.7    4/ 7   3/ 7
BUOY 41004       0200   82 82  180/ 12/ 16 1015.7    4/ 5   2/ 7

$$


USA.gov is the U.S. government's official web portal to all federal, state and local government web resources and services.